EW4169 Weather Reports


Display with metric or nautical units.
time (UTC)temp
F
wind
direction
speed
MPH
gust
MPH
rain 1hr
in
rain 24hr
in
rain mn
in
humidity
%
barometer
mb
20260502211536 42 288 5.0 8.0 0.00 0.19 0.02 78 1013.3
20260502210028 42 264 5.0 8.0 0.00 0.22 0.02 78 1013.2
20260502204543 42 278 2.0 4.0 0.00 0.22 0.02 79 1013.3
20260502203020 42 285 7.0 11.0 0.00 0.22 0.02 76 1013.3
20260502201620 42 277 5.0 9.0 0.00 0.22 0.02 75 1013.4
20260502201501 43 278 5.0 11.0 0.00 0.22 0.02 76 1013.4
20260502200024 43 276 4.0 11.0 0.00 0.28 0.02 75 1013.4
20260502194503 43 300 7.0 12.0 0.00 0.28 0.02 74 1013.5
20260502193028 44 285 7.0 12.0 0.00 0.28 0.02 70 1013.5
20260502191600 45 278 3.0 8.0 0.00 0.28 0.02 64 1013.7
20260502191503 45 266 3.0 8.0 0.00 0.28 0.02 64 1013.7
20260502190044 46 278 3.0 6.0 0.00 0.28 0.02 61 1013.6
20260502184511 46 297 4.0 10.0 0.00 0.28 0.02 60 1013.8
20260502183042 46 236 2.0 10.0 0.00 0.28 0.02 61 1013.9
20260502181509 45 250 5.0 9.0 0.00 0.28 0.02 61 1014.0
20260502163030 45 258 10.0 14.0 0.00 0.28 0.02 61 1014.1
20260502161504 45 275 6.0 11.0 0.00 0.28 0.02 59 1014.2
20260502151526 45 207 0.0 9.0 0.00 0.28 0.02 62 1014.3
20260502123022 39 302 4.0 11.0 0.00 0.28 0.02 79 1014.9
20260502121538 39 269 4.0 10.0 0.00 0.28 0.02 82 1015.0
20260502114634 38 259 3.0 8.0 0.00 0.28 0.02 84 1015.0
20260502113020 37 274 5.0 8.0 0.00 0.28 0.02 86 1014.7
20260502111539 36 248 3.0 7.0 0.00 0.28 0.02 86 1014.7
20260502110044 36 287 5.0 10.0 0.00 0.28 0.02 88 1014.6
20260502104600 35 285 3.0 7.0 0.00 0.28 0.02 89 1014.6
20260502104502 35 265 3.0 7.0 0.00 0.28 0.02 89 1014.6
20260502103042 35 259 4.0 10.0 0.00 0.28 0.02 91 1014.9
20260502101618 34 269 5.0 8.0 0.00 0.28 0.02 93 1014.7
20260502101501 34 250 4.0 8.0 0.00 0.28 0.02 94 1014.7
20260502091508 35 210 1.0 3.0 0.00 0.28 0.02 91 1014.0
20260502071507 37 290 4.0 10.0 0.00 0.28 0.02 92 1013.6
20260502070047 37 290 4.0 10.0 0.00 0.28 0.02 93 1013.4
20260502064622 37 293 5.0 9.0 0.00 0.28 0.02 94 1013.4
20260502064501 37 303 5.0 9.0 0.00 0.28 0.02 94 1013.4
20260502063059 37 292 5.0 11.0 0.00 0.28 0.02 95 1013.4
20260502061508 38 302 8.0 14.0 0.00 0.28 0.02 96 1013.5
20260502060041 37 303 12.0 17.0 0.01 0.28 0.02 97 1013.4
20260502054509 38 308 9.0 16.0 0.02 0.28 0.02 97 1013.5
20260502053054 38 337 9.0 15.0 0.02 0.28 0.02 98 1013.5
20260502051512 39 319 7.0 12.0 0.02 0.28 0.02 98 1013.4
20260502050046 39 301 12.0 19.0 0.01 0.27 0.01 98 1013.4
20260502044519 41 269 5.0 10.0 0.06 0.26 0.00 98 1013.2
20260502043107 41 274 3.0 9.0 0.12 0.26 0.00 98 1012.8
20260502041532 42 290 4.0 7.0 0.13 0.26 0.00 98 1012.7
20260502040021 42 276 1.0 8.0 0.12 0.25 0.25 98 1012.7
20260502034536 42 282 5.0 8.0 0.07 0.20 0.20 98 1012.6
20260502033023 43 108 0.0 2.0 0.00 0.13 0.13 98 1012.3
20260502031537 43 108 1.0 2.0 0.01 0.13 0.13 98 1012.3
20260502030057 43 244 1.0 3.0 0.01 0.13 0.13 98 1012.6
20260502024534 43 2 0.0 1.0 0.01 0.13 0.13 98 1012.3
20260502023012 43 300 2.0 3.0 0.01 0.13 0.13 98 1012.4
20260502021531 43 300 2.0 3.0 0.00 0.12 0.12 98 1012.4
20260502020015 43 96 0.0 3.0 0.00 0.12 0.12 98 1012.1
20260502014549 42 268 1.0 3.0 0.00 0.12 0.12 98 1012.2
20260502013007 43 253 0.0 1.0 0.00 0.12 0.12 98 1012.0
20260502011528 43 254 0.0 1.0 0.00 0.12 0.12 98 1012.2
20260502010017 43 253 0.0 0.0 0.01 0.12 0.12 97 1012.0
20260502004549 43 254 0.0 3.0 0.01 0.12 0.12 97 1011.8
20260502003013 44 263 1.0 3.0 0.01 0.12 0.12 97 1011.8
20260502001552 44 310 0.0 1.0 0.01 0.12 0.12 97 1011.8
20260502000023 44 310 0.0 3.0 0.00 0.11 0.11 97 1011.6
20260501234555 44 292 2.0 5.0 0.00 0.11 0.11 97 1011.5
20260501233034 45 293 3.0 5.0 0.00 0.11 0.11 97 1011.4
20260501231547 45 276 2.0 4.0 0.00 0.11 0.11 97 1011.3
20260501230053 46 13 0.0 0.0 0.00 0.11 0.11 97 1011.2
20260501224505 46 13 0.0 0.0 0.00 0.11 0.11 97 1011.2
20260501223027 45 13 2.0 3.0 0.00 0.11 0.11 97 1011.1
20260501221503 46 25 4.0 7.0 0.01 0.11 0.11 97 1011.0
20260501220037 46 81 2.0 3.0 0.02 0.11 0.11 97 1011.0
20260501214548 45 59 2.0 4.0 0.02 0.11 0.11 97 1011.0
20260501213036 46 75 0.0 3.0 0.02 0.11 0.11 97 1011.1